TIME,�g��[���C[MJ/h],����[MJ/h],�Ɩ�[MJ/h],�~�[[MJ/h],�①��[MJ/h],��y���[MJ/h],�Ǝ��q��[MJ/h],���̑�[MJ/h],�����G�l���M�[[MJ/h]
2003/2/1 0:00,0.5923,0,0.5871,0,0.1961,1.1167,0.311,0.4429,0
2003/2/1 0:15,0.5571,0,1.0797,0,0.6057,1.0986,0.3106,0.354,0
2003/2/1 0:30,0.2796,0,0.9196,0,0.3311,0.5975,0.3682,0.7412,0
2003/2/1 0:45,0.7055,0,0.507,0,0.6588,1.1841,0.3738,0.1859,0
2003/2/1 1:00,0.005,0,0.1228,0,0.1462,0.192,0.2821,0.9629,0
2003/2/1 1:15,0.005,0,0.0039,0,0.5341,0.1907,0.4235,0.968,0
2003/2/1 1:30,0.005,0,0,0,0.4631,0.1894,0.239,0.953,0
2003/2/1 1:45,0.005,0,0.015,0,0.4058,0.1896,0.4251,1.0139,0
2003/2/1 2:00,0.005,0,0.0019,0,0.338,0.1905,0.2402,1.0142,0
2003/2/1 2:15,0.005,0,0.004,0,0.3754,0.1908,0.4285,0.9687,0
2003/2/1 2:30,0.005,0,0.0118,0,0.6444,0.1917,0.2424,0.9711,0
2003/2/1 2:45,0.005,0,0.0104,0,0.1912,0.1899,0.4163,0.9592,0
2003/2/1 3:00,0.0049,0,0.0089,0,0.528,0.1881,0.3288,1.0215,0
2003/2/1 3:15,0.0049,0,0.0137,0,0.3459,0.1891,0.3305,0.9323,0
2003/2/1 3:30,0.005,0,0.0128,0,0.5184,0.1895,0.33,0.939,0
2003/2/1 3:45,0.0049,0,0.0145,0,0.2115,0.1896,0.3305,0.9588,0
2003/2/1 4:00,0.0049,0,0.0347,0,0.4974,0.1902,0.3289,0.9693,0
2003/2/1 4:15,0.0049,0,0.022,0,0.4778,0.1895,0.398,0.9289,0
2003/2/1 4:30,0.005,0,0.0206,0,0.2602,0.1898,0.2269,0.9238,0
2003/2/1 4:45,0.0049,0,0.0275,0,0.4468,0.1896,0.4051,1.0146,0
2003/2/1 5:00,0.005,0,0.0363,0,0.3692,0.1896,0.2275,0.9073,0
2003/2/1 5:15,0.0049,0,0.0389,0,0.5393,0.1889,0.4095,0.92,0
2003/2/1 5:30,0.0049,0,0.0367,0,0.1071,0.1885,0.2288,0.956,0
2003/2/1 5:45,0.0049,0,0.0433,0,0.6332,0.1891,0.409,0.9428,0
2003/2/1 6:00,0.0049,0,0.041,0,0.3279,0.1898,0.3178,0.9007,0
2003/2/1 6:15,0.005,0,0.0436,0,0.4452,0.1894,0.3188,0.9122,0
2003/2/1 6:30,0.005,0,0.0433,0,0.2343,0.1884,0.4062,0.9776,0
2003/2/1 6:45,0.0049,0,0.0458,0,0.5698,0.1869,0.2288,0.9238,0
2003/2/1 7:00,0.005,0,0.0484,0,0.3072,0.2262,0.4075,0.9125,0
2003/2/1 7:15,0.005,0,0.0078,0,0.31,0.186,0.318,0.9742,0
2003/2/1 7:30,1.2023,0,0.0006,0,0.4473,1.6268,0.3237,-0.0552,0
2003/2/1 7:45,1.3776,0,0.1369,0,0.4267,1.9927,0.5495,-0.4683,0
2003/2/1 8:00,0.9706,0,0.0003,0.6434,0.3439,1.6124,0.3269,0.1531,0
2003/2/1 8:15,0.9192,0,0.0001,0.7832,0.3753,1.5235,0.4012,0.1058,0
2003/2/1 8:30,0.8179,0,0,0,0.6202,1.4105,0.4188,0.6011,0
2003/2/1 8:45,0.8713,0,0,0,0.1322,1.507,0.4033,0.088,0
2003/2/1 9:00,0.8086,0,0.0112,0,0.5829,1.424,0.7152,0.0906,0
2003/2/1 9:15,0.7469,0,0.05,0,0.3306,1.3486,0.4084,0.235,0
2003/2/1 9:30,0.7001,0,0.3505,0,0.6026,1.3013,0.7546,0.2344,0
2003/2/1 9:45,0.6932,0,0.0998,0,0.3184,1.3188,0.7299,0.2285,0
2003/2/1 10:00,0.741,0,0.0671,0,0.3444,1.3117,0.8984,-0.0665,0
2003/2/1 10:15,0.6432,0,0.0179,0,0.6147,1.2205,1.0788,-0.1439,0
2003/2/1 10:30,0.6854,0,0.0501,0,0.435,1.2833,0.4527,-0.1515,0
2003/2/1 10:45,0.4461,0,0.112,0,0.9171,0.8728,0.3214,0.1475,0
2003/2/1 11:00,0.0052,0,0,0,0.7811,0.1915,0.6736,0.5543,0
2003/2/1 11:15,0.0053,0,0,0,0.7852,0.1918,0.3267,0.5664,0
2003/2/1 11:30,0.2098,0,0.0003,0,0.4834,0.3966,0.3158,0.3786,0
2003/2/1 11:45,1.0649,0,0,0,0.5966,1.5591,0.3171,-0.499,0
2003/2/1 12:00,0.6898,0,0,0,0.575,1.3033,0.4098,-0.0896,0
2003/2/1 12:15,0.5904,0,0,0,0.5024,1.1719,0.2246,-0.0206,0
2003/2/1 12:30,0.6617,0,0,1.1651,0.8034,1.2158,0.4044,0.0197,0
2003/2/1 12:45,0.653,0,0,0,0.1119,1.3429,0.2206,-0.1087,0
2003/2/1 13:00,0.5928,0,0.0649,0,0.6104,1.1568,0.3989,-0.0323,0
2003/2/1 13:15,0.5747,0,0.0245,0,0.4951,1.147,0.2226,-0.0249,0
2003/2/1 13:30,0.5708,0,0.0282,0,0.4543,1.1372,0.4018,-0.0373,0
2003/2/1 13:45,0.5628,0,0.0354,0,0.4781,1.1244,0.2472,-0.0359,0
2003/2/1 14:00,0.5301,0,0.0251,0,0.2935,1.122,0.3727,-0.0037,0
2003/2/1 14:15,0.4405,0,0.0289,0,0.6435,0.9972,0.3141,0.1175,0
2003/2/1 14:30,0.5475,0,0.0452,0,0.4925,1.1514,0.3076,-0.0084,0
2003/2/1 14:45,0.5478,0,0.0708,0,0.2667,1.1147,0.3106,-0.0042,0
2003/2/1 15:00,0.5544,0,0.0235,0,0.5367,1.4446,0.345,0.0239,0
2003/2/1 15:15,0.5619,0,0.0668,0,0.3961,1.1434,0.4032,0.0039,0
2003/2/1 15:30,0.5652,0,0,0,0.5592,1.1419,0.2174,-0.0199,0
2003/2/1 15:45,0.5613,0,0,0,0.5685,1.1326,0.4003,-0.0137,0
2003/2/1 16:00,0.5607,0,0,0,0.1344,1.11,0.216,0.0073,0
2003/2/1 16:15,0.2828,0,0,0,0.6098,0.6434,0.4013,0.2968,0
2003/2/1 16:30,0.0052,0,0,0,0.4581,0.1895,0.218,0.5901,0
2003/2/1 16:45,0.005,0,0.0806,0,0.484,0.1872,0.3918,0.5704,0
2003/2/1 17:00,0.6316,0,0.6216,0.6595,0.5684,0.8603,0.2172,-0.0217,0
2003/2/1 17:15,0.8055,0,0.5093,1.9701,0.2746,1.423,0.3944,-0.1734,0
2003/2/1 17:30,0.6849,0,0.4103,0.4349,0.4991,1.2535,0.2156,-0.0835,0
2003/2/1 17:45,0.6293,0,0.4068,0.0285,0.3354,1.1632,0.3984,-0.0406,0
2003/2/1 18:00,0.5746,0,0.4052,0.0253,0.5881,1.1411,0.2187,-0.0229,0
2003/2/1 18:15,0.5704,0,0.6857,0.4242,0.5154,1.1972,0.3328,0.1236,0
2003/2/1 18:30,0.5632,0,0.6682,0,0.4159,1.1615,0.2807,0.4442,0
2003/2/1 18:45,0.5982,0,0.5242,0,0.7178,1.1995,0.3063,0.8987,0
2003/2/1 19:00,0.6441,0,0.5067,0,0.2331,1.3164,0.391,0.5882,0
2003/2/1 19:15,0.5633,0,0.4995,0,0.4833,1.2138,0.2187,0.5731,0
2003/2/1 19:30,0.4624,0,0.4873,0,0.4095,1.0701,0.3918,0.6827,0
2003/2/1 19:45,0.508,0,0.484,0,0.5455,1.0704,0.2187,0.6935,0
2003/2/1 20:00,0.5393,0,0.4821,0,0.4707,1.1102,0.3915,0.6074,0
2003/2/1 20:15,0.4048,0,0.4792,0,0.196,0.9389,0.2176,0.8398,0
2003/2/1 20:30,0.5289,0,0.4751,0,0.7144,1.1053,0.3887,0.6693,0
2003/2/1 20:45,0.4954,0,0.5021,0,0.3227,1.1575,0.2192,0.7089,0
2003/2/1 21:00,0.4382,0,0.4827,0,0.5445,1.2182,0.3946,0.725,0
2003/2/1 21:15,0.5367,0,0.4775,0,0.2352,1.2959,0.3064,0.6196,0
2003/2/1 21:30,0.5354,0,0.4761,0,0.465,1.2901,0.3082,0.7066,0
2003/2/1 21:45,0.5338,0,0.4758,0,0.571,1.2851,0.3041,0.6319,0
2003/2/1 22:00,0.5341,0,0.4753,0,0.3606,1.2809,0.3079,0.6153,0
2003/2/1 22:15,0.4044,0,1.014,0,0.7717,0.9343,0.307,0.7078,0
2003/2/1 22:30,0.5183,0,0.9814,0,0.752,1.0925,0.3054,0.6049,0
2003/2/1 22:45,0.5253,0,1.1114,0,0.858,1.083,0.3116,0.5527,0
2003/2/1 23:00,0.4612,0,0.9455,0,0.5607,1.0119,0.2998,0.5908,0
2003/2/1 23:15,0.4801,0,0.8469,0,0.562,1.0587,0.3564,0.4236,0
2003/2/1 23:30,0.5397,0,1.0297,0,0.6163,1.1148,0.256,0.4625,0
2003/2/1 23:45,0.5423,0,1.096,0,0.2575,1.1631,0.4657,0.4036,0
2003/2/2 0:00,0.1382,0,0.5882,0,0.5645,0.4294,0.3169,0.7737,0
2003/2/2 0:15,0.0049,0,0.4833,0,0.3622,0.4775,0.2975,0.867,0
2003/2/2 0:30,0.005,0,0.1135,0,0.5999,0.1958,0.3158,0.9577,0
2003/2/2 0:45,0.005,0,0,0,0.4656,0.1909,0.3064,0.942,0
2003/2/2 1:00,0.0052,0,0,0,0.487,0.1912,0.3076,0.993,0
2003/2/2 1:15,0.005,0,0,0,0.5772,0.1911,0.217,0.9701,0
2003/2/2 1:30,0.005,0,0,0,0.1207,0.1908,0.4048,0.9772,0
2003/2/2 1:45,0.0049,0,0,0,0.6814,0.1878,0.2167,0.9991,0
2003/2/2 2:00,0.005,0,0.0006,0,0.3401,0.1904,0.3966,0.9478,0
2003/2/2 2:15,0.0052,0,0.004,0,0.6189,0.1914,0.2208,0.9576,0
2003/2/2 2:30,0.005,0,0.0042,0,0.1884,0.1945,0.3944,0.977,0
2003/2/2 2:45,0.005,0,0.0037,0,0.4668,0.1911,0.3063,1.0058,0
2003/2/2 3:00,0.005,0,0.0081,0,0.4971,0.1911,0.3087,1.0017,0
2003/2/2 3:15,0.005,0,0.0112,0,0.4216,0.1905,0.3139,0.9264,0
2003/2/2 3:30,0.005,0,0.0166,0,0.3565,0.1907,0.3066,0.9409,0
2003/2/2 3:45,0.0049,0,0.0206,0,0.2939,0.1914,0.3109,0.9249,0
2003/2/2 4:00,0.0052,0,0.03,0,0.6673,0.1912,0.3172,0.9982,0
2003/2/2 4:15,0.005,0,0.0301,0,0.2102,0.1928,0.312,0.9372,0
2003/2/2 4:30,0.005,0,0.0347,0,0.5014,0.1922,0.3122,0.9272,0
2003/2/2 4:45,0.005,0,0.0395,0,0.3587,0.1921,0.3141,0.9373,0
2003/2/2 5:00,0.005,0,0.0315,0,0.5396,0.1908,0.3132,0.9543,0
2003/2/2 5:15,0.005,0,0.0317,0,0.2036,0.1909,0.3142,0.9945,0
2003/2/2 5:30,0.005,0,0.4601,0,0.4781,0.1905,0.4075,0.9022,0
2003/2/2 5:45,0.0049,0,0.4805,0,0.4873,0.1909,0.2261,0.896,0
2003/2/2 6:00,0.005,0,0.0376,0,0.2758,0.1909,0.4032,0.9616,0
2003/2/2 6:15,0.0049,0,0.0413,0,0.4375,0.1901,0.2246,0.9377,0
2003/2/2 6:30,0.0049,0,0.0409,0,0.3668,0.1895,0.4117,0.9073,0
2003/2/2 6:45,0.005,0,0.0433,0,0.5947,0.1886,0.2271,0.914,0
2003/2/2 7:00,0.005,0,0.0454,0,0.1096,0.2264,0.4095,0.9798,0
2003/2/2 7:15,0.005,0,0.0513,0,0.5711,0.1888,0.2379,0.8965,0
2003/2/2 7:30,0.0049,0,0.0383,0,0.3303,0.327,0.399,1.2384,0
2003/2/2 7:45,0.005,0,0,0,0.5511,0.5597,0.3177,1.5385,0
2003/2/2 8:00,0.0049,0,0.0403,0,0.1469,0.3777,0.3178,1.0584,0
2003/2/2 8:15,0.005,0,0.0017,0,0.5531,0.2716,0.5227,1.2593,0
2003/2/2 8:30,0.2445,0,0,0,0.4447,0.4828,0.4287,1.9247,0
2003/2/2 8:45,1.7031,0,0,0.6139,0.484,2.3075,0.2251,-0.5538,0
2003/2/2 9:00,1.1256,0,0,0.6216,0.3616,1.758,0.4128,-0.0109,0
2003/2/2 9:15,0.8495,0,0,0,0.3623,1.4388,0.3126,0.0999,0
2003/2/2 9:30,0.8768,0,0,0,0.5964,1.5078,0.3141,0.1058,0
2003/2/2 9:45,0.7913,0,0.5652,0,0.2074,1.5628,0.3102,0.1215,0
2003/2/2 10:00,0.7763,0,0.2494,0,0.6267,1.5026,0.337,-0.1519,0
2003/2/2 10:15,0.7259,0,0.3214,0,0.382,1.2074,0.5099,-0.0956,0
2003/2/2 10:30,0.7295,0,0.3404,0,0.6643,1.1758,0.3537,-0.1452,0
2003/2/2 10:45,0.7446,0,0.5724,0,0.5793,1.098,0.3228,-0.1548,0
2003/2/2 11:00,0.1518,0,0.4118,0,1.0035,0.3895,0.3118,1.8677,0
2003/2/2 11:15,0.0052,0,1.5036,0,0.6324,0.2187,0.4203,1.4705,0
2003/2/2 11:30,0.1947,0,0,0,0.5432,0.4216,0.2356,0.2964,0
2003/2/2 11:45,1.5709,0,0,0,0.6029,2.2356,0.4186,-0.9881,0
2003/2/2 12:00,0.8433,0,0.2792,0,0.2997,1.4917,0.2349,-0.2876,0
2003/2/2 12:15,0.7894,0,0.1621,0,0.4684,1.389,0.4262,-0.1993,0
2003/2/2 12:30,0.7688,0,0.0003,0,0.3374,1.3846,0.4231,0.0076,0
2003/2/2 12:45,0.7605,0,0,0,0.6585,1.3771,0.4379,-0.1908,0
2003/2/2 13:00,0.7497,0,0,0,0.3698,1.3641,0.3149,-0.2303,0
2003/2/2 13:15,0.594,0,0,0,0.3596,1.1861,0.3499,-0.0147,0
2003/2/2 13:30,0.7284,0,0,0,0.4023,1.3205,0.3315,-0.1904,0
2003/2/2 13:45,0.5871,0,0,0,0.466,1.1886,0.3269,-0.0265,0
2003/2/2 14:00,0.5881,0,0,0,0.5666,1.2832,0.4133,0.4674,0
2003/2/2 14:15,0.6932,0,0,0,0.1496,1.5081,0.217,-0.0053,0
2003/2/2 14:30,0.5619,0,0,0,0.6708,1.3928,0.3959,0.1956,0
2003/2/2 14:45,0.5603,0,0,0,0.3347,1.3635,0.2186,0.1164,0
2003/2/2 15:00,0.5666,0,0,0,0.5689,1.3681,0.395,0.0747,0
2003/2/2 15:15,0.5669,0,0.0001,0,0.1708,1.3692,0.3073,0.0966,0
2003/2/2 15:30,0.5737,0,0,0,0.5469,1.2365,0.3122,0.3096,0
2003/2/2 15:45,0.7076,0,0.0086,0,0.4808,1.2604,0.3141,0.2572,0
2003/2/2 16:00,0.5792,0,0.0271,0,0.3678,1.0305,0.3069,0.3727,0
2003/2/2 16:15,0.5733,0,0.0003,0,0.3682,0.7695,0.3129,0.4797,0
2003/2/2 16:30,0.6922,0,0,0,0.3501,0.9334,0.3313,0.2062,0
2003/2/2 16:45,0.5868,0,0.6936,0,0.6458,0.8644,0.4074,0.3879,0
2003/2/2 17:00,0.5744,0,0.5761,0,0.1447,1.1326,0.219,0.4162,0
2003/2/2 17:15,0.6792,0,0.5689,0,0.5439,1.2904,0.3966,0.287,0
2003/2/2 17:30,0.5812,0,0.9658,0.054,0.3718,1.1586,0.2192,0.4782,0
2003/2/2 17:45,0.5633,0,1.032,0.1421,0.5577,1.171,0.4196,0.6502,0
2003/2/2 18:00,0.5593,0,1.21,0.037,0.4523,1.121,0.3982,0.572,0
2003/2/2 18:15,0.5568,0,1.1938,0,0.3125,1.1089,0.2183,0.4435,0
2003/2/2 18:30,0.6212,0,0.7939,0,0.4288,1.1969,0.3941,0.306,0
2003/2/2 18:45,0.6045,0,0.7917,0,0.374,1.1775,0.3034,0.3339,0
2003/2/2 19:00,0.5064,0,0.7946,0,0.6362,1.1278,0.3034,0.467,0
2003/2/2 19:15,0.5017,0,0.796,0,0.1401,1.1048,0.3061,0.5427,0
2003/2/2 19:30,0.624,0,0.797,0,0.5295,1.2169,0.3126,0.2979,0
2003/2/2 19:45,0.5979,0,0.7976,0,0.3959,1.2184,0.3984,0.382,0
2003/2/2 20:00,0.5511,0,0.9076,0,0.5446,1.132,0.2159,0.3735,0
2003/2/2 20:15,0.5508,0,1.0453,0,0.4844,1.0716,0.3976,0.4922,0
2003/2/2 20:30,0.5501,0,1.1362,0,0.5172,1.0649,0.2154,0.448,0
2003/2/2 20:45,0.555,0,1.013,0,0.6414,1.1195,0.3936,0.4032,0
2003/2/2 21:00,0.5593,0,0.8067,0,0.1427,1.1534,0.2173,0.3696,0
2003/2/2 21:15,0.5593,0,0.9246,0,0.6663,1.1909,0.394,0.3957,0
2003/2/2 21:30,0.5589,0,0.7959,0,0.3681,1.1701,0.2153,0.4514,0
2003/2/2 21:45,0.5587,0,1.0809,0,0.5921,1.1591,0.3928,0.5622,0
2003/2/2 22:00,0.5489,0,1.3333,0,0.2742,1.1151,0.2146,0.3996,0
2003/2/2 22:15,0.5427,0,0.8997,0,0.4283,1.0986,0.3963,0.4769,0
2003/2/2 22:30,0.5435,0,1.2766,0,0.6968,1.1256,0.3492,0.4588,0
2003/2/2 22:45,0.5257,0,1.4062,0,0.3541,1.1131,0.3059,0.4969,0
2003/2/2 23:00,0.4762,0,0.7553,0,0.8965,1.0224,0.3082,0.5013,0
2003/2/2 23:15,0.3548,0,0.7216,0,0.8218,0.8287,0.3023,0.6333,0
2003/2/2 23:30,0.005,0,0.4153,0,0.7445,0.1907,0.3024,0.9994,0
2003/2/2 23:45,0.005,0,0.4131,0,0.6077,0.1911,0.3937,0.9413,0
2003/2/3 0:00,0.005,0,0.4064,0,0.502,0.1909,0.2141,0.994,0
2003/2/3 0:15,0.0049,0,0.3876,0,0.6051,0.1901,0.394,0.9174,0
2003/2/3 0:30,0.0052,0,0.4164,0,0.1345,0.1914,0.2153,0.9043,0
2003/2/3 0:45,0.005,0,0.3583,0,0.6787,0.1907,0.3925,0.9377,0
2003/2/3 1:00,0.005,0,0.4271,0,0.337,0.1901,0.2164,0.9768,0
2003/2/3 1:15,0.005,0,0.4401,0,0.596,0.1909,0.3912,0.9033,0
2003/2/3 1:30,0.005,0,0.4219,0,0.2683,0.1922,0.2186,0.8857,0
2003/2/3 1:45,0.005,0,0.4199,0,0.4005,0.1941,0.4025,0.9012,0
2003/2/3 2:00,0.005,0,0.4535,0,0.5219,0.1918,0.2176,0.9759,0
2003/2/3 2:15,0.005,0,0.4298,0,0.4496,0.1918,0.396,0.8839,0
2003/2/3 2:30,0.005,0,0.4114,0,0.4163,0.1931,0.308,0.9246,0
2003/2/3 2:45,0.005,0,0.4481,0,0.2693,0.1937,0.306,0.8978,0
2003/2/3 3:00,0.005,0,0.3911,0,0.6612,0.1937,0.3084,0.9544,0
2003/2/3 3:15,0.0049,0,0.4549,0,0.2507,0.192,0.3089,0.8806,0
2003/2/3 3:30,0.005,0,0.4676,0,0.5033,0.1911,0.3056,0.6133,0
2003/2/3 3:45,0.0049,0,0.3884,0,0.3338,0.1922,0.3118,0.5131,0
2003/2/3 4:00,0.005,0,0.4576,0,0.6057,0.192,0.3079,0.4905,0
2003/2/3 4:15,0.005,0,0.4059,0,0.1721,0.1921,0.3105,0.4856,0
2003/2/3 4:30,0.0049,0,0.4535,0,0.5403,0.1908,0.3115,0.5136,0
2003/2/3 4:45,0.0049,0,0.4176,0,0.452,0.1901,0.3096,0.4851,0
2003/2/3 5:00,0.0049,0,0.4571,0,0.3743,0.1901,0.3122,0.4972,0
2003/2/3 5:15,0.005,0,0.4334,0,0.3564,0.1904,0.4019,0.4667,0
2003/2/3 5:30,0.0049,0,0.4604,0,0.4356,0.1914,0.2225,0.4939,0
2003/2/3 5:45,0.005,0,0.4121,0,0.5642,0.1917,0.4032,0.5095,0
2003/2/3 6:00,0.0049,0,1.0836,0,0.1863,0.4124,0.2235,1.2997,0
2003/2/3 6:15,1.6788,0,1.6381,0.2352,0.5364,2.3275,0.5066,5.8653,0
2003/2/3 6:30,1.1386,0,1.0146,0.4376,0.3355,1.6786,0.43,0.253,0
2003/2/3 6:45,0.8257,0,0.4229,0,0.6846,1.0254,0.354,0.1567,0
2003/2/3 7:00,0.9233,0,0.431,0,0.1184,1.1706,0.3161,-0.0354,0
2003/2/3 7:15,0.8022,0,0.4059,0,0.5527,1.0107,0.4137,0.2377,0
2003/2/3 7:30,0.7648,0,0.218,0,0.3989,1.1045,0.5936,0.2854,0
2003/2/3 7:45,0.7517,0,0.1148,0,0.5589,1.37,1.0557,0.1971,0
2003/2/3 8:00,1.3186,0,0.8862,0,0.3581,1.3591,1.2059,0.266,0
2003/2/3 8:15,0.7363,0,0.0079,0,0.2749,1.2876,0.5161,0.2595,0
2003/2/3 8:30,0.4434,0,0.0003,0,0.5138,0.8607,0.5708,0.3167,0
2003/2/3 8:45,0.005,0,0,0,0.4183,0.1895,0.3224,0.4895,0
2003/2/3 9:00,0.0052,0,0.0006,0,0.4425,0.1896,0.3138,0.4954,0
2003/2/3 9:15,0.0052,0,0,0,0.2321,0.1912,0.3158,1.028,0
2003/2/3 9:30,0.0052,0,1.1218,0,0.6843,0.1902,0.3982,1.8965,0
2003/2/3 9:45,0.0052,0,0.0029,0,0.2776,0.1912,0.2239,0.4769,0
2003/2/3 10:00,0.005,0,0,0,0.524,0.1908,0.4337,0.4902,0
2003/2/3 10:15,0.0052,0,0,0,0.3491,0.1907,0.3069,0.4736,0
2003/2/3 10:30,0.0052,0,0,0,0.5969,0.1909,0.3361,0.4925,0
2003/2/3 10:45,0.0052,0,0,0,0.2612,0.1912,0.4039,0.5109,0
2003/2/3 11:00,0.0052,0,0,0,0.4012,0.1909,0.2248,0.4812,0
2003/2/3 11:15,0.0052,0,0,0,0.5329,0.1914,0.4056,0.498,0
2003/2/3 11:30,0.0052,0,0,0,0.4869,0.1912,0.2241,0.4955,0
2003/2/3 11:45,0.0052,0,0,0,0.7112,0.1915,0.4046,0.4827,0
2003/2/3 12:00,0.0053,0,0,0,0.8067,0.2212,0.2252,0.4897,0
2003/2/3 12:15,0.0052,0,0.0001,0,0.9122,0.1904,0.4033,0.4867,0
2003/2/3 12:30,0.005,0,0,0,0.4524,0.1912,0.2231,0.4851,0
2003/2/3 12:45,0.0052,0,0,0,0.7285,0.1914,0.4056,0.4798,0
2003/2/3 13:00,0.0052,0,0,0,0.4271,0.1901,0.4026,0.4667,0
2003/2/3 13:15,0.0052,0,0.0003,0,0.3355,0.1896,0.2215,0.467,0
2003/2/3 13:30,0.005,0,0,0,0.5007,0.1886,0.3979,0.498,0
2003/2/3 13:45,0.0052,0,0,0,0.4101,0.1892,0.2209,0.5232,0
2003/2/3 14:00,0.0052,0,0,0,0.6515,0.1885,0.4002,0.4886,0
2003/2/3 14:15,0.005,0,0,0,0.1863,0.1898,0.22,0.4788,0
2003/2/3 14:30,0.0052,0,0,0,0.5355,0.1902,0.397,0.4847,0
2003/2/3 14:45,0.0052,0,0,0,0.4219,0.1886,0.2199,0.4851,0
2003/2/3 15:00,0.0052,0,0,0,0.4961,0.1904,0.4038,0.4926,0
2003/2/3 15:15,0.0052,0,0,0,0.4402,0.1904,0.2197,0.4823,0
2003/2/3 15:30,0.0052,0,0,0,0.1892,0.1895,0.3957,0.5034,0
2003/2/3 15:45,0.0052,0,0,0,0.7246,0.1896,0.2193,0.4787,0
2003/2/3 16:00,0.005,0,0,0,0.3108,0.1891,0.4005,0.5008,0
2003/2/3 16:15,0.0052,0,0,0,0.5018,0.1888,0.218,0.4882,0
2003/2/3 16:30,0.005,0,0,0,0.2713,0.186,0.3905,0.4781,0
2003/2/3 16:45,0.0049,0,0,0,0.4506,0.1862,0.3061,0.5082,0
2003/2/3 17:00,0.005,0,0.4759,0.3322,0.6081,0.1866,0.3063,0.5184,0
2003/2/3 17:15,0.0049,0,0.6432,1.8638,0.2853,0.1872,0.3041,0.4991,0
2003/2/3 17:30,0.0052,0,0.635,0.3303,0.6175,0.1885,0.3243,0.5295,0
2003/2/3 17:45,0.005,0,0.6228,0.0285,0.1596,0.1925,0.4054,0.4717,0
2003/2/3 18:00,0.0052,0,0.6205,0.0264,0.4755,0.1918,0.2192,0.5023,0
2003/2/3 18:15,0.4915,0,0.7164,0.0259,0.5054,0.6867,0.4005,0.1041,0
2003/2/3 18:30,1.7472,0,0.9291,0.0311,0.4461,1.9829,0.2193,-1.013,0
2003/2/3 18:45,0.9933,0,0.9801,0.1297,0.5967,1.2027,0.3972,-0.0249,0
2003/2/3 19:00,1.0018,0,0.8964,0.3305,0.379,1.5983,0.2202,-0.0863,0
2003/2/3 19:15,0.8309,0,0.7402,0,0.7291,1.362,0.402,-0.1303,0
2003/2/3 19:30,0.8169,0,0.7389,0,0.1243,1.3667,0.2193,-0.0844,0
2003/2/3 19:45,0.7937,0,0.7419,0,0.5291,1.3353,0.4033,-0.0372,0
2003/2/3 20:00,0.7757,0,0.7428,0,0.4609,1.3591,0.2483,-0.0848,0
2003/2/3 20:15,0.7373,0,0.7387,0,0.4775,1.2754,0.3783,0.0834,0
2003/2/3 20:30,0.6525,0,0.7367,0,0.3416,1.203,0.3011,0.0696,0
2003/2/3 20:45,0.7563,0,0.8188,0,0.3266,1.3064,0.3155,-0.0307,0
2003/2/3 21:00,0.6712,0,1.2335,0,0.6726,1.2465,0.3109,0.6983,0
2003/2/3 21:15,0.6651,0,0.9516,0,0.2897,1.2797,0.3332,0.2768,0
2003/2/3 21:30,0.6349,0,0.4602,0,0.4985,1.1804,0.4067,0.3861,0
2003/2/3 21:45,0.6795,0,0.4707,0,0.228,1.2728,0.2213,0.2619,0
2003/2/3 22:00,0.5803,0,0.6032,0,0.5793,1.1277,0.3969,0.3453,0
2003/2/3 22:15,0.7197,0,0.8578,0,0.4604,1.2823,0.2202,0.3224,0
2003/2/3 22:30,0.5772,0,0.7809,0,0.3391,1.1704,0.399,0.4264,0
2003/2/3 22:45,0.6437,0,0.9994,0,0.382,1.2106,0.2177,0.2534,0
2003/2/3 23:00,0.3548,0,0.6162,0,0.3462,0.7914,0.3987,0.6772,0
2003/2/3 23:15,0.005,0,0.3705,0,0.7053,0.4139,0.2174,1.0764,0
2003/2/3 23:30,0.005,0,0.0968,0,0.3383,0.1894,0.3948,0.9779,0
2003/2/3 23:45,0.0052,0,0.0033,0,0.6598,0.1918,0.219,0.973,0
2003/2/4 0:00,0.005,0,0.0004,0,0.7795,0.1888,0.3937,0.9492,0
2003/2/4 0:15,0.005,0,0.0058,0,0.8499,0.1882,0.2199,0.9444,0
2003/2/4 0:30,0.005,0,0.0102,0,0.6081,0.1918,0.4045,1.0377,0
2003/2/4 0:45,0.005,0,0.0095,0,0.5184,0.1891,0.2183,0.9811,0
2003/2/4 1:00,0.005,0,0.0167,0,0.6502,0.1899,0.4005,0.9438,0
2003/2/4 1:15,0.005,0,0.016,0,0.2336,0.1911,0.2225,0.9405,0
2003/2/4 1:30,0.005,0,0.0246,0,0.5376,0.1915,0.395,0.9413,0
2003/2/4 1:45,0.0052,0,0.0249,0,0.3352,0.1924,0.4023,0.9952,0
2003/2/4 2:00,0.005,0,0.0327,0,0.5936,0.1925,0.2222,0.923,0
2003/2/4 2:15,0.0049,0,0.0272,0,0.2605,0.1892,0.3972,0.8908,0
2003/2/4 2:30,0.005,0,0.0364,0,0.3319,0.1894,0.2216,0.9387,0
2003/2/4 2:45,0.0049,0,0.0419,0,0.4304,0.1896,0.3925,0.9252,0
2003/2/4 3:00,0.0049,0,0.0406,0,0.4791,0.1896,0.2229,0.8869,0
2003/2/4 3:15,0.005,0,0.0442,0,0.3432,0.1902,0.4009,0.9029,0
2003/2/4 3:30,0.0049,0,0.0449,0,0.2951,0.1904,0.2225,0.9703,0
2003/2/4 3:45,0.005,0,0.0474,0,0.5612,0.1905,0.4005,0.8852,0
2003/2/4 4:00,0.0049,0,0.0503,0,0.268,0.1907,0.2252,0.8806,0
2003/2/4 4:15,0.005,0,0.0495,0,0.4297,0.1911,0.4046,0.973,0
2003/2/4 4:30,0.0049,0,0.0497,0,0.3233,0.1905,0.2251,0.876,0
2003/2/4 4:45,0.005,0,0.0472,0,0.6352,0.1907,0.4029,0.9006,0
2003/2/4 5:00,0.0049,0,0.0462,0,0.1184,0.1899,0.3139,0.9072,0
2003/2/4 5:15,0.005,0,0.0484,0,0.5342,0.1911,0.3174,0.9462,0
2003/2/4 5:30,0.005,0,0.0507,0,0.3593,0.1941,0.3123,0.8886,0
2003/2/4 5:45,0.0049,0,0.0498,0,0.411,0.1902,0.3148,0.9016,0
2003/2/4 6:00,0.0049,0,0.3868,0,0.2637,0.4072,0.4008,1.3997,0
2003/2/4 6:15,0.0048,0,1.1111,0.5759,0.4939,0.5448,0.3457,6.694,0
2003/2/4 6:30,0.0049,0,0.4586,0,0.5118,0.4789,0.3508,1.3692,0
2003/2/4 6:45,0.005,0,0.0379,0,0.3174,0.1908,0.4208,0.9638,0
2003/2/4 7:00,0.005,0,0.0292,0,0.3853,0.2282,0.3208,0.9724,0
2003/2/4 7:15,0.005,0,0.0006,0,0.2739,0.1918,0.3197,0.9742,0
2003/2/4 7:30,0.0052,0,0.0037,0,0.6552,0.1911,0.408,1.0979,0
2003/2/4 7:45,0.005,0,0.0305,0,0.3162,0.482,0.2271,0.573,0
2003/2/4 8:00,0.0052,0,0.0197,0,0.4218,0.1924,0.4667,0.5579,0
2003/2/4 8:15,0.005,0,0.0003,0,0.3115,0.1905,0.4445,0.5861,0
2003/2/4 8:30,1.6898,0,0.0004,0,0.5522,2.2114,0.3338,-1.1472,0
2003/2/4 8:45,1.2537,0,0.0003,0,0.2069,1.8312,0.4104,-0.2131,0
2003/2/4 9:00,0.3767,0,0.463,0,0.4062,0.9582,0.228,1.1746,0
2003/2/4 9:15,0.0049,0,0.3394,0,0.5315,0.5491,0.3995,5.8229,0
2003/2/4 9:30,1.6423,0,0.5613,0,0.2909,2.2664,0.2252,-0.7004,0
2003/2/4 9:45,1.4108,0,0.0006,0,0.5113,2.0238,0.4077,-0.4493,0
2003/2/4 10:00,0.4291,0,0.0003,0,0.3195,0.7667,0.4366,0.4807,0
2003/2/4 10:15,0.005,0,0.0006,0,0.6756,0.1908,0.2238,0.8922,0
2003/2/4 10:30,0.005,0,0.0003,0,0.1387,0.1902,0.4144,0.8346,0
2003/2/4 10:45,0.0052,0,0.0004,0,0.5047,0.1905,0.3152,0.9418,0
2003/2/4 11:00,0.005,0,0.0009,0,0.3884,0.1909,0.3148,0.862,0
2003/2/4 11:15,0.005,0,0.0012,0,0.4435,0.1908,0.31,0.8755,0
2003/2/4 11:30,0.0052,0,0.0006,0,0.273,0.1907,0.3171,0.8843,0
2003/2/4 11:45,0.005,0,0.001,0,0.4549,0.1905,0.3136,0.9157,0
2003/2/4 12:00,0.0052,0,0.0009,0,0.527,0.2203,0.3126,0.9344,0
2003/2/4 12:15,0.0052,0,0.0009,0,0.4437,0.1914,0.4072,0.8649,0
2003/2/4 12:30,0.005,0,0.0007,0,0.8418,0.1905,0.2615,0.8902,0
2003/2/4 12:45,0.005,0,0,0,0.7691,0.1907,0.3686,0.9004,0
2003/2/4 13:00,0.005,0,0.0003,0,0.78,0.1907,0.3113,0.9829,0
2003/2/4 13:15,0.005,0,0.0006,0,0.41,0.1898,0.31,0.8911,0
2003/2/4 13:30,0.0052,0,0.0003,0,0.6716,0.1911,0.3152,0.8784,0
2003/2/4 13:45,0.005,0,0.0003,0,0.2615,0.1915,0.3095,0.8718,0
2003/2/4 14:00,0.0052,0,0.0003,0,0.393,0.1909,0.3135,0.9112,0
2003/2/4 14:15,0.005,0,0.0003,0,0.4532,0.1907,0.3112,0.9248,0
2003/2/4 14:30,0.0052,0,0,0,0.4681,0.1896,0.3152,0.8706,0
2003/2/4 14:45,0.0052,0,0.0001,0,0.4556,0.1898,0.3135,0.8774,0
2003/2/4 15:00,0.0052,0,0.0003,0,0.1912,0.1904,0.4051,0.8947,0
2003/2/4 15:15,0.005,0,0,0,0.6532,0.1907,0.2219,0.9573,0
2003/2/4 15:30,0.0052,0,0.0003,0,0.3221,0.1917,0.4046,0.8919,0
2003/2/4 15:45,0.0052,0,0.0006,0,0.5368,0.1896,0.2208,0.8991,0
2003/2/4 16:00,0.005,0,0.0001,0,0.2082,0.1921,0.3986,0.87,0
2003/2/4 16:15,0.005,0,0.0171,0,0.573,0.1892,0.2219,0.8863,0
2003/2/4 16:30,0.005,0,0.0003,0,0.4215,0.1895,0.4177,0.9616,0
2003/2/4 16:45,0.005,0,0.0405,0,0.3784,0.1896,0.3161,0.8832,0
2003/2/4 17:00,0.005,0,0.2117,0,0.325,0.1879,0.3064,0.8833,0
2003/2/4 17:15,0.0052,0,0.2513,0,0.3105,0.1896,0.3142,0.8556,0
2003/2/4 17:30,2.0367,0,0.9104,0.104,0.6441,2.4247,0.3073,-1.0922,0
2003/2/4 17:45,1.5972,0,0.9615,0.142,0.3158,2.124,0.3129,-0.7386,0
2003/2/4 18:00,1.1704,0,0.8993,0.1421,0.6173,1.7721,0.3072,-0.2742,0
2003/2/4 18:15,1.1408,0,0.885,0.141,0.1109,1.7397,0.3995,-0.1873,0
2003/2/4 18:30,1.0516,0,0.8772,0.1414,0.498,1.6462,0.2228,-0.0945,0
2003/2/4 18:45,0.9765,0,0.8764,0.1421,0.4131,1.5837,0.3979,-0.0223,0
2003/2/4 19:00,1.0335,0,0.9599,1.1709,0.5056,1.6655,0.3051,0.2065,0
2003/2/4 19:15,0.906,0,0.9469,0,0.4975,1.5209,0.3148,0.5599,0
2003/2/4 19:30,0.9292,0,0.8536,0,0.2339,1.5412,0.3074,0.4892,0
2003/2/4 19:45,0.9575,0,0.8558,0,0.4661,1.5659,0.3082,-0.0238,0
2003/2/4 20:00,0.833,0,0.8562,0,0.3375,1.4285,0.3027,0.1601,0
2003/2/4 20:15,0.8117,0,0.8559,0,0.6735,1.4056,0.3044,0.1652,0
2003/2/4 20:30,0.8065,0,0.8544,0,0.2278,1.3889,0.3057,0.1047,0
2003/2/4 20:45,0.8005,0,0.8493,0,0.4242,1.3818,0.3038,0.2023,0
2003/2/4 21:00,0.8031,0,1.1059,0,0.5154,1.4985,0.3086,0.1698,0
2003/2/4 21:15,0.8136,0,1.3349,0,0.3799,1.516,0.2998,0.056,0
2003/2/4 21:30,0.7946,0,1.169,0,0.4625,1.5199,0.2134,0.1475,0
2003/2/4 21:45,0.7675,0,1.0594,0,0.2438,1.4335,0.3884,0.1799,0
2003/2/4 22:00,0.7665,0,1.136,0,0.6756,1.3428,0.2546,0.4435,0
2003/2/4 22:15,0.7798,0,1.2148,0,0.3552,1.3772,0.3688,0.1447,0
2003/2/4 22:30,0.7629,0,0.8374,0,0.3342,1.3113,0.3061,0.1305,0
2003/2/4 22:45,0.75,0,1.1346,0,0.4218,1.3474,0.2942,0.1993,0
2003/2/4 23:00,0.7512,0,1.2241,0,0.4105,1.3235,0.3014,0.1845,0
2003/2/4 23:15,0.7455,0,1.006,0,0.6384,1.2983,0.2988,0.291,0